Dewpoint
31 32 33 34 39 39 39 38 40 40 38 39 37 38 39 40 41 44 48 47 47 47 44 46 44 42 43 44 46 45 46 46
31 34 34 34 37 36 37 36 39 35 32 32 32 32 36 36 37 43 44 46 47 46 44 44 44 42 44 45 43 45 42 45
31 33 35 35 35 36 35 36 37 37 33 34 36 36 33 33 36 39 42 43 45 42 45 43 45 41 43 44 43 39 39 42
29 31 33 33 34 35 35 36 37 38 40 34 34 33 33 34 35 36 37 40 42 44 44 44 45 43 41 42 42 42 38 39
27 29 31 35 36 36 35 37 37 37 41 38 39 34 33 35 37 39 38 40 40 41 43 44 45 43 44 42 40 42 40 37
25 28 30 31 36 39 39 36 36 37 40 41 38 39 36 36 38 41 41 41 40 39 42 44 44 42 44 45 44 43 39 38
26 28 29 31 38 39 39 36 35 36 38 40 42 42 40 38 39 38 37 38 39 42 42 44 44 43 43 43 45 44 43 41
27 27 27 30 33 36 37 36 34 35 38 40 42 42 43 42 39 37 39 38 38 41 44 45 43 44 43 43 45 44 42 42
28 27 29 29 31 33 35 34 34 35 37 39 41 42 39 39 39 39 39 39 39 44 44 44 44 44 44 45 42 42 44 43
28 28 30 30 31 34 36 37 35 35 37 40 42 42 43 42 44 45 43 44 41 44 47 46 45 45 44 45 43 45 45 45
28 28 30 30 32 33 35 38 36 36 40 40 39 42 42 43 44 45 45 46 45 45 47 47 47 46 46 46 45 45 46 45
27 28 29 32 33 35 36 35 35 36 38 39 42 43 42 42 42 43 43 44 43 43 43 43 43 45 46 47 47 45 45 46
28 30 31 32 32 33 33 36 36 36 36 37 40 41 40 40 40 40 42 41 42 41 41 40 40 39 42 43 44 43 44 44
30 31 30 31 33 34 33 34 33 32 30 31 34 35 35 34 34 35 35 35 35 35 35 36 37 40 40 42 42 42 43 44
31 32 33 33 33 32 29 29 28 26 24 25 27 30 30 30 30 31 32 31 31 30 31 31 34 31 31 34 34 39 42 42
30 32 33 29 27 25 24 24 24 24 23 24 26 27 27 27 28 29 29 29 28 28 29 30 31 30 25 33 33 34 37 38
29 30 26 22 22 22 22 24 24 24 24 23 22 22 22 24 25 26 27 27 28 29 28 29 30 25 30 36 33 30 32 33
28 24 22 22 22 21 22 23 23 22 22 19 18 18 19 21 22 23 25 27 28 28 28 27 28 28 30 31 32 27 28 30
23 22 23 22 22 21 22 20 19 18 15 13 15 16 18 20 22 23 25 25 26 26 28 27 27 24 29 32 33 30 30 30
Lifted_Index
12 12 12 12 12 12 12 12 12 13 13 13 12 12 12 12 12 11 11 10 10 9 9 8 8 8 8 8 8 7 6 6
12 12 12 12 12 12 12 12 12 12 12 13 12 12 12 12 12 12 11 11 10 9 9 8 8 8 8 8 8 7 7 6
12 12 12 12 12 12 12 12 12 12 12 12 12 12 12 12 12 12 11 11 10 10 9 9 8 8 8 8 9 8 8 7
12 12 12 12 12 12 12 12 12 12 11 11 11 11 11 11 11 11 11 11 10 10 9 9 9 9 9 9 9 9 8 8
12 12 12 12 12 12 12 12 12 11 11 10 10 10 10 10 10 10 10 10 10 10 9 9 9 9 8 9 9 9 9 9
12 12 12 12 12 12 11 11 11 11 10 10 9 9 9 9 9 9 9 9 9 9 9 9 9 9 8 8 9 9 9 9
11 11 11 11 11 11 11 11 11 10 10 9 9 9 8 8 8 8 8 8 9 9 9 9 9 9 9 8 8 9 9 9
11 11 11 11 11 11 11 11 10 10 9 9 8 8 8 8 8 8 8 8 8 8 8 8 8 8 8 8 8 9 9 9
10 10 11 11 11 11 10 10 10 10 10 9 8 8 8 8 8 7 7 7 7 7 7 8 8 8 8 8 8 8 9 9
10 10 10 10 10 10 10 10 10 10 10 9 9 8 8 7 7 7 7 7 7 7 7 7 7 7 8 8 8 8 8 8
9 10 10 10 10 10 10 10 10 10 10 10 9 9 8 8 8 7 7 7 7 7 6 6 7 7 7 7 7 7 7 7
9 9 9 9 10 10 10 10 10 10 10 10 10 9 9 9 9 8 8 8 8 7 7 7 7 7 7 7 7 7 7 7
9 9 9 10 10 10 10 10 10 11 11 11 11 11 11 11 11 10 10 10 10 9 9 8 8 8 7 7 7 7 7 6
9 10 10 10 11 11 11 11 11 12 13 13 13 13 13 13 13 13 12 12 12 11 11 10 10 9 9 8 8 7 7 7
10 10 11 11 11 11 12 12 13 13 14 14 14 14 14 14 14 14 14 14 14 13 13 13 12 11 11 10 10 9 9 8
11 11 11 12 12 12 13 13 14 14 15 15 15 15 15 16 16 15 15 15 15 15 14 14 14 13 13 13 13 12 11 11
11 11 12 12 12 12 13 14 14 15 15 15 16 16 16 16 16 16 16 15 15 15 15 15 15 15 15 15 15 15 14 14
12 12 12 12 12 13 14 14 15 15 16 16 16 17 17 17 16 16 16 16 15 15 15 15 15 15 16 16 16 16 16 16
12 13 13 13 13 14 14 15 15 16 16 17 17 17 17 17 16 16 16 16 16 16 15 15 15 16 16 16 16 16 16 16